This is the latest recevied weather packets stored in our database for station/object KC1HBM. If no packets are shown the sender has not sent any weather packets the latest 10 day(s).
| Time | Temp. | Humidity | Pressure | Rain* | Wind** | Luminosity | Snow |
|---|---|---|---|---|---|---|---|
| 1778150427 | 8.89° C | 97% | 1004.9 hPa | 0 mm | - | 13 W/m² | - |
| 1778150123 | 8.89° C | 97% | 1005.3 hPa | 0 mm | - | 6 W/m² | - |
| 1778149819 | 8.89° C | 98% | 1005 hPa | 0 mm | - | 12 W/m² | - |
| 1778149516 | 8.89° C | 98% | 1004.8 hPa | 0 mm | - | 9 W/m² | - |
| 1778149212 | 8.89° C | 98% | 1004.5 hPa | 0 mm | - | 5 W/m² | - |
| 1778148908 | 8.89° C | 98% | 1004.9 hPa | 0 mm | - | 5 W/m² | - |
| 1778148605 | 8.89° C | 97% | 1004.5 hPa | 0 mm | - | 5 W/m² | - |
| 1778148302 | 8.89° C | 97% | 1004.6 hPa | 0 mm | - | 2 W/m² | - |
| 1778148000 | 8.89° C | 98% | 1004.6 hPa | 0 mm | - | 1 W/m² | - |
| 1778147698 | 8.89° C | 98% | 1004.6 hPa | 0 mm | - | 1 W/m² | - |
| 1778147394 | 8.89° C | 98% | 1005 hPa | 0 mm | - | 0 W/m² | - |
| 1778147090 | 8.89° C | 99% | 1004.7 hPa | 0 mm | - | 1 W/m² | - |
| 1778146788 | 8.33° C | 99% | 1004.1 hPa | 0 mm | - | 0 W/m² | - |
| 1778146485 | 8.33° C | 99% | 1004 hPa | 0 mm | - | 0 W/m² | - |
| 1778146183 | 8.33° C | 99% | 1004.6 hPa | 0 mm | - | 0 W/m² | - |
| 1778145879 | 8.33° C | 99% | 1004.5 hPa | 0 mm | - | 0 W/m² | - |
| 1778145576 | 8.33° C | 99% | 1004 hPa | 0 mm | - | 0 W/m² | - |
| 1778145272 | 8.33° C | 99% | 1004 hPa | 0 mm | - | 0 W/m² | - |
| 1778144968 | 8.33° C | 99% | 1003.8 hPa | 0 mm | - | 0 W/m² | - |
| 1778144665 | 8.89° C | 99% | 1004.2 hPa | 0 mm | - | 0 W/m² | - |
| 1778144361 | 8.89° C | 99% | 1004.1 hPa | 0 mm | - | 0 W/m² | - |
| 1778144059 | 8.89° C | 99% | 1003.9 hPa | 0 mm | - | 0 W/m² | - |
| 1778143756 | 8.89° C | 99% | 1004.1 hPa | 0 mm | - | 0 W/m² | - |
| 1778143452 | 8.89° C | 99% | 1003.9 hPa | 0 mm | - | 0 W/m² | - |
| 1778143150 | 8.89° C | 99% | 1004.3 hPa | 0 mm | - | 0 W/m² | - |
* Rain latest hour (hover to see other rain measurements)
** Current wind speed in m/s (hover to see current wind gust speed)